Location: Launois
(49.6535°N, 4.5395°E)
Time: 14:41:44
(UTC+00:00)

SL-24 R/B - Pass Details

Date: 23 May 2024
Orbit: 716 x 1115 km, 91.9° (Epoch: 16 June)

Event Time Altitude Azimuth Distance (km) Brightness Sun altitude
Exits shadow 02:28:15 - 186° (S) 2,407 6.6 -10.3°
Reaches altitude 10° 02:28:40 10° 187° (S) 2,237 6.4 -10.2°
Maximum altitude 02:33:31 62° 268° (W) 810 4.5 -9.7°
Drops below altitude 10° 02:38:18 10° 350° (N) 2,217 7.5 -9.2°
Sets 02:40:38 0° 353° (N) 3,157 8.3 -9.0°
